Weather History for Jerez de la Frontera, Spain

Change the Weather History Date:

Sunday, October 27, 2013

  Actual Average Record
Temperature  
Mean Temperature 70 °F -  
Max Temperature 83 °F 66 °F 84 °F (2002)
Min Temperature 56 °F 48 °F 41 °F (2010)
Cooling Degree Days 4    
Growing Degree Days 20 (Base 50)    
Moisture  
Dew Point 61 °F    
Average Humidity 75    
Maximum Humidity 100    
Minimum Humidity 45    
Precipitation  
Precipitation 0.00 in 0.14 in - ()
Sea Level Pressure  
Sea Level Pressure 30.14 in    
Wind  
Wind Speed 7 mph ()    
Max Wind Speed 14 mph    
Max Gust Speed 20 mph    
Visibility 12.5 miles    
Events      
Averages and records for this station are not official NWS values.
T = Trace of Precipitation, MM = Missing Value Source: Averaged Metar Reports

Daily Weather History Graph

Daily Weather History Graph

Search for Another Location

Airport:

Trip Planner

Search our weather history database for the weather conditions in past years. The results will help you decide how hot, cold, wet, or windy it might be!

Date:

Astronomy

Oct. 27, 2013 Rise Set
Actual Time 7:42 AM CET 6:32 PM CET
Civil Twilight 7:16 AM CET 6:59 PM CET
Nautical Twilight 6:46 AM CET 7:29 PM CET
Astronomical Twilight 6:15 AM CET 7:59 PM CET
Moon 12:38 AM CEST 2:24 PM CET
Length of Visible Light 11h 42m
Length of Day
10h 49m
Last Quarter, 45% of the Moon is Illuminated
Oct 27
Last Quarter
Nov 3
New
Nov 10
First Quarter
Nov 17
Full
Nov 25
Last Quarter

Hourly Weather History & Observations

Time (CET) Temp. Heat Index Dew Point Humidity Pressure Visibility Wind Dir Wind Speed Gust Speed Precip Events Conditions
2:00 AM 57 °F - 57 °F 100% 30.20 in 6 mi ENE 3.5 mph - -   Clear
5:00 AM 59.0 °F - 59.0 °F 100% 30.15 in - North 9.2 mph - N/A   Clear
5:30 AM 59.0 °F - 59.0 °F 100% 30.15 in - North 9.2 mph - N/A   Clear
6:00 AM 60.8 °F - 59.0 °F 94% 30.15 in - North 9.2 mph - N/A   Clear
6:30 AM 60.8 °F - 59.0 °F 94% 30.15 in - NNE 9.2 mph - N/A   Clear
7:00 AM 61 °F - 58 °F 88% 30.17 in 31 mi North 11.5 mph - -  
7:00 AM 60.8 °F - 59.0 °F 94% 30.15 in - North 10.4 mph - N/A   Clear
7:30 AM 60.8 °F - 57.2 °F 88% 30.15 in - NNE 10.4 mph - N/A   Clear
8:00 AM 59.0 °F - 57.2 °F 94% 30.18 in - North 10.4 mph - N/A   Clear
8:30 AM 60.8 °F - 59.0 °F 94% 30.18 in - NNE 11.5 mph - N/A   Clear
9:00 AM 62.6 °F - 59.0 °F 88% 30.18 in - NNE 9.2 mph - N/A   Clear
9:30 AM 64.4 °F - 59.0 °F 83% 30.18 in - NNE 5.8 mph - N/A   Clear
10:00 AM 66.2 °F - 60.8 °F 83% 30.21 in - NNE 9.2 mph - N/A   Clear
10:30 AM 66.2 °F - 60.8 °F 83% 30.18 in - North 10.4 mph - N/A   Clear
11:00 AM 69.8 °F - 60.8 °F 73% 30.18 in - North 13.8 mph - N/A   Clear
11:30 AM 71.6 °F - 60.8 °F 69% 30.18 in - NNE 11.5 mph - N/A   Clear
12:00 PM 73.4 °F - 60.8 °F 65% 30.18 in - NNE 8.1 mph - N/A   Clear
12:30 PM 75.2 °F - 59.0 °F 57% 30.18 in - NE 10.4 mph - N/A   Clear
1:00 PM 78 °F - 61 °F 47% 30.17 in 22 mi NE 9.2 mph - -  
1:00 PM 77.0 °F - 59.0 °F 54% 30.15 in - NE 9.2 mph - N/A   Clear
1:30 PM 77.0 °F - 64.4 °F 65% 30.15 in - NNE 12.7 mph - N/A   Clear
2:00 PM 77.0 °F - 62.6 °F 61% 30.12 in - NNE 13.8 mph - N/A   Clear
2:30 PM 78.8 °F - 62.6 °F 57% 30.12 in - NNE 10.4 mph - N/A   Clear
3:00 PM 80.6 °F 81.1 °F 59.0 °F 48% 30.12 in - NE 5.8 mph - N/A   Clear
3:30 PM 80.6 °F 81.1 °F 59.0 °F 48% 30.09 in - East 5.8 mph - N/A   Clear
4:00 PM 80.6 °F 81.8 °F 62.6 °F 54% 30.09 in - ENE 6.9 mph - N/A   Clear
4:30 PM 82.4 °F 82.9 °F 60.8 °F 48% 30.09 in - East 3.5 mph - N/A   Clear
5:00 PM 82.4 °F 82.5 °F 59.0 °F 45% 30.09 in - Variable 2.3 mph - N/A   Clear
5:30 PM 80.6 °F 81.8 °F 62.6 °F 54% 30.09 in - NNW 6.9 mph - N/A   Clear
6:00 PM 78.8 °F - 64.4 °F 61% 30.09 in - North 6.9 mph 19.6 mph N/A   Clear
6:30 PM 75.2 °F - 64.4 °F 69% 30.09 in - North 3.5 mph - N/A   Clear
7:00 PM 73 °F - 63 °F 64% 30.12 in 19 mi Calm Calm - -  
7:00 PM 73.4 °F - 64.4 °F 73% 30.12 in - Calm Calm - N/A   Clear
7:30 PM 71.6 °F - 64.4 °F 78% 30.12 in - Calm Calm - N/A   Clear
8:00 PM 69.8 °F - 64.4 °F 83% 30.12 in - Variable 2.3 mph - N/A   Clear
8:30 PM 68.0 °F - 62.6 °F 83% 30.12 in - Calm Calm - N/A   Clear
9:00 PM 66.2 °F - 62.6 °F 88% 30.12 in - Calm Calm - N/A   Clear
9:30 PM 64.4 °F - 62.6 °F 94% 30.12 in - Calm Calm - N/A   Clear
10:00 PM 64.4 °F - 60.8 °F 88% 30.12 in - Variable 1.2 mph - N/A   Clear
10:30 PM 64.4 °F - 60.8 °F 88% 30.12 in - Calm Calm - N/A   Clear